EW5659 Weather Reports


time (UTC)temp
C
wind
direction
speed
KPH
gust
KPH
rain 1hr
cm
rain 24hr
cm
rain mn
cm
humidity
%
barometer
mb
20260506094530 11 360 9.7 20.9 0.00 0.00 0.00 75 1013.3
20260506094013 10 360 8.0 20.9 0.00 0.00 0.00 76 1013.3
20260506093510 10 360 9.7 17.7 0.00 0.00 0.00 75 1013.3
20260506093031 11 360 6.4 19.3 0.00 0.00 0.00 76 1013.2
20260506092513 10 360 6.4 19.3 0.00 0.00 0.00 75 1013.2
20260506092012 10 360 9.7 20.9 0.00 0.00 0.00 75 1013.1
20260506091532 11 360 8.0 20.9 0.00 0.00 0.00 75 1013.0
20260506091013 10 360 6.4 20.9 0.00 0.00 0.00 76 1013.2
20260506090514 10 360 6.4 17.7 0.00 0.00 0.00 76 1013.0
20260506090032 10 360 8.0 25.7 0.00 0.00 0.00 76 1013.1
20260506085513 10 360 9.7 25.7 0.00 0.00 0.00 77 1013.1
20260506085013 10 360 8.0 22.5 0.00 0.00 0.00 77 1013.0
20260506084529 10 360 9.7 19.3 0.00 0.00 0.00 77 1013.0
20260506084013 10 360 4.8 17.7 0.00 0.00 0.00 78 1013.1
20260506083512 9 360 4.8 19.3 0.00 0.00 0.00 78 1013.2
20260506083032 9 360 9.7 20.9 0.00 0.00 0.00 78 1013.1
20260506082513 9 360 6.4 24.1 0.00 0.00 0.00 79 1013.2
20260506082013 9 360 8.0 24.1 0.00 0.00 0.00 80 1013.1
20260506081530 9 360 9.7 24.1 0.00 0.00 0.00 79 1013.1
20260506081011 9 360 6.4 19.3 0.00 0.00 0.00 81 1013.2
20260506080513 8 360 6.4 16.1 0.00 0.00 0.00 82 1013.2
20260506073512 8 360 8.0 19.3 0.00 0.00 0.00 82 1013.1
20260506073030 8 360 9.7 19.3 0.00 0.00 0.00 82 1013.0
20260506072515 8 360 8.0 20.9 0.00 0.00 0.00 82 1013.2
20260506072010 8 288 6.4 20.9 0.00 0.00 0.00 83 1013.2
20260506071532 7 360 4.8 20.9 0.00 0.00 0.00 84 1013.0
20260506071012 7 360 6.4 16.1 0.00 0.00 0.00 84 1012.9
20260506070514 7 15 6.4 16.1 0.00 0.00 0.00 85 1012.9
20260506062012 6 360 8.0 17.7 0.00 0.00 0.00 87 1012.8
20260506061535 6 360 6.4 19.3 0.00 0.00 0.00 88 1012.9
20260506061011 6 360 6.4 19.3 0.00 0.00 0.00 87 1012.9
20260506060511 6 360 6.4 19.3 0.00 0.00 0.00 88 1012.8
20260506051010 5 360 4.8 12.9 0.00 0.00 0.00 89 1012.8
20260506050516 5 360 3.2 12.9 0.00 0.00 0.00 89 1012.8
20260506045011 5 360 4.8 12.9 0.00 0.00 0.00 88 1012.8
20260506044539 5 360 3.2 12.9 0.00 0.00 0.00 88 1012.7
20260506044016 5 360 3.2 8.0 0.00 0.00 0.00 88 1012.8
20260506043514 5 360 3.2 12.9 0.00 0.00 0.00 87 1012.8
20260506043029 5 360 3.2 12.9 0.00 0.00 0.00 87 1012.8
20260506042510 5 360 3.2 9.7 0.00 0.00 0.00 87 1012.8
20260506042016 5 360 3.2 14.5 0.00 0.00 0.00 87 1012.9
20260506041528 5 360 3.2 14.5 0.00 0.00 0.00 87 1012.9
20260506041012 5 360 4.8 12.9 0.00 0.00 0.00 86 1012.8
20260506040510 5 360 4.8 12.9 0.00 0.00 0.00 86 1012.7
20260506040050 6 360 3.2 12.9 0.00 0.00 0.00 86 1012.7
20260506035513 6 360 4.8 17.7 0.00 0.00 0.00 86 1012.9
20260506035013 6 360 6.4 17.7 0.00 0.00 0.00 85 1012.8
20260506034534 6 360 9.7 17.7 0.00 0.00 0.00 85 1012.8
20260506034011 6 360 8.0 17.7 0.00 0.00 0.00 85 1012.9
20260506033513 6 360 6.4 16.1 0.00 0.00 0.00 84 1012.9
20260506033031 7 360 6.4 22.5 0.00 0.00 0.00 84 1012.9
20260506032512 7 360 8.0 22.5 0.00 0.00 0.00 84 1012.9
20260506032013 7 360 9.7 19.3 0.00 0.00 0.00 84 1013.0
20260506031542 7 360 8.0 20.9 0.00 0.00 0.00 84 1012.9
20260506031015 7 360 8.0 20.9 0.00 0.00 0.00 84 1012.9
20260506030513 7 360 9.7 20.9 0.00 0.00 0.00 84 1013.0
20260506030031 7 360 8.0 17.7 0.00 0.00 0.00 83 1013.0
20260506025510 7 360 8.0 17.7 0.00 0.00 0.00 84 1013.1
20260506025013 7 360 6.4 17.7 0.00 0.00 0.00 83 1013.1
20260506024530 7 360 8.0 17.7 0.00 0.00 0.00 83 1013.0
20260506024013 7 360 6.4 14.5 0.00 0.00 0.00 83 1013.1
20260506023512 7 360 6.4 14.5 0.00 0.00 0.00 83 1013.2
20260506023032 8 360 6.4 14.5 0.00 0.00 0.00 83 1013.2
20260506022513 8 360 4.8 14.5 0.00 0.00 0.00 83 1013.3
20260506022012 8 360 4.8 16.1 0.00 0.00 0.00 82 1013.2
20260506021529 8 360 6.4 16.1 0.00 0.00 0.00 82 1013.2
20260506021016 8 360 3.2 12.9 0.00 0.00 0.00 81 1013.3
20260506020512 8 360 4.8 16.1 0.00 0.00 0.00 81 1013.3
20260506020030 8 360 4.8 16.1 0.00 0.00 0.00 81 1013.3
20260506015513 8 360 4.8 17.7 0.00 0.00 0.00 81 1013.4
20260506015010 8 360 6.4 17.7 0.00 0.00 0.00 80 1013.4
20260506014533 8 360 8.0 17.7 0.00 0.00 0.00 80 1013.4
20260506014009 8 360 6.4 16.1 0.00 0.00 0.00 80 1013.4
20260506013514 8 360 6.4 17.7 0.00 0.00 0.00 80 1013.3
20260506013030 8 360 6.4 24.1 0.00 0.00 0.00 80 1013.3
20260506012513 8 360 6.4 24.1 0.00 0.00 0.00 80 1013.3
20260506012011 8 360 9.7 19.3 0.00 0.00 0.00 80 1013.3
20260506011532 8 360 8.0 19.3 0.00 0.00 0.00 81 1013.3
20260506011011 8 360 8.0 22.5 0.00 0.00 0.00 81 1013.4
20260506010512 8 360 9.7 22.5 0.00 0.00 0.00 81 1013.2
20260506010031 8 360 9.7 17.7 0.00 0.00 0.00 81 1013.3
20260506005513 8 360 6.4 17.7 0.00 0.00 0.00 81 1013.3
20260506005012 8 360 6.4 16.1 0.00 0.00 0.00 81 1013.4
20260506004529 8 360 6.4 16.1 0.00 0.00 0.00 81 1013.4
20260506004016 8 360 6.4 14.5 0.00 0.00 0.00 82 1013.4
20260506003512 8 360 6.4 16.1 0.00 0.00 0.00 82 1013.3
20260506003030 8 360 6.4 16.1 0.00 0.00 0.00 82 1013.5
20260506002509 9 360 6.4 16.1 0.00 0.00 0.00 82 1013.6
20260506002009 9 360 6.4 20.9 0.00 0.00 0.00 83 1013.5
20260506001530 9 360 8.0 20.9 0.00 0.00 0.00 83 1013.5
20260506001012 9 360 8.0 17.7 0.00 0.00 0.00 83 1013.5
20260506000515 9 360 8.0 17.7 0.00 0.00 0.00 83 1013.4
20260506000033 9 360 3.2 9.7 0.00 0.00 0.00 83 1013.4
20260505235514 9 360 3.2 9.7 0.00 0.00 0.00 82 1013.4
20260505235015 9 360 3.2 9.7 0.00 0.00 0.00 82 1013.5
20260505234530 9 360 4.8 12.9 0.00 0.00 0.00 82 1013.5
20260505234013 9 360 4.8 12.9 0.00 0.00 0.00 82 1013.7
20260505233514 9 360 6.4 12.9 0.00 0.00 0.00 82 1013.6
20260505233031 9 360 4.8 12.9 0.00 0.00 0.00 82 1013.7
20260505232515 9 360 6.4 14.5 0.00 0.00 0.00 82 1013.6
20260505232012 9 360 4.8 14.5 0.00 0.00 0.00 82 1013.7
20260505231541 9 360 6.4 14.5 0.00 0.00 0.00 82 1013.7
20260505231020 9 360 3.2 9.7 0.00 0.00 0.00 82 1013.6
20260505230516 9 360 3.2 9.7 0.00 0.00 0.00 81 1013.7
20260505230034 9 360 3.2 9.7 0.00 0.00 0.00 81 1013.8
20260505225520 9 360 3.2 12.9 0.00 0.00 0.00 81 1013.8
20260505225013 9 360 4.8 12.9 0.00 0.00 0.00 81 1013.8
20260505224530 9 360 3.2 9.7 0.00 0.00 0.00 80 1013.8
20260505224012 9 360 1.6 9.7 0.00 0.00 0.00 80 1013.8
20260505223516 9 360 4.8 12.9 0.00 0.00 0.00 80 1013.8
20260505223034 9 360 4.8 12.9 0.00 0.00 0.00 80 1013.8
20260505222514 9 360 4.8 12.9 0.00 0.00 0.00 80 1013.8
20260505222013 9 360 4.8 16.1 0.00 0.00 0.00 80 1013.9
20260505221529 9 360 6.4 16.1 0.00 0.00 0.00 79 1013.9
20260505221013 9 360 8.0 16.1 0.00 0.00 0.00 79 1013.8
20260505220517 9 360 4.8 14.5 0.00 0.00 0.00 79 1014.0
20260505220039 9 360 6.4 14.5 0.00 0.00 0.00 79 1013.9
20260505215515 10 360 4.8 14.5 0.00 0.00 0.00 79 1013.9
20260505215015 10 360 4.8 17.7 0.00 0.00 0.00 78 1013.8
20260505214536 10 360 6.4 19.3 0.00 0.00 0.00 78 1013.8
20260505214015 10 360 8.0 19.3 0.00 0.00 0.00 78 1013.8
20260505213514 10 360 4.8 16.1 0.00 0.00 0.00 78 1013.8
20260505213033 10 360 6.4 16.1 0.00 0.00 0.00 78 1013.8
20260505212515 10 360 6.4 16.1 0.00 0.00 0.00 78 1013.7
20260505212014 10 360 6.4 14.5 0.00 0.00 0.00 78 1013.7
20260505211530 10 360 6.4 16.1 0.00 0.00 0.00 78 1013.8
20260505211015 10 360 6.4 19.3 0.00 0.00 0.00 78 1013.8
20260505210552 10 360 6.4 19.3 0.00 0.00 0.00 77 1013.7
20260505210031 10 360 8.0 17.7 0.00 0.00 0.00 77 1013.7
20260505205514 10 360 6.4 25.7 0.00 0.00 0.00 76 1013.7
20260505205014 10 360 6.4 25.7 0.00 0.00 0.00 76 1013.8
20260505204535 10 360 4.8 16.1 0.00 0.00 0.00 76 1013.7
20260505204014 11 360 4.8 20.9 0.00 0.00 0.00 76 1013.7
20260505203513 11 360 6.4 20.9 0.00 0.00 0.00 76 1013.6
20260505203032 11 360 8.0 17.7 0.00 0.00 0.00 78 1013.6
20260505202512 11 360 3.2 9.7 0.00 0.00 0.00 80 1013.6
20260505202014 11 360 3.2 9.7 0.00 0.00 0.00 81 1013.5
20260505201535 11 360 1.6 9.7 0.00 0.00 0.00 82 1013.4
20260505201011 11 360 3.2 9.7 0.00 0.00 0.00 82 1013.5
20260505200518 11 360 3.2 8.0 0.00 0.00 0.00 83 1013.5
20260505200039 11 360 1.6 8.0 0.00 0.00 0.00 83 1013.4
20260505195516 11 360 3.2 8.0 0.00 0.00 0.00 83 1013.4
20260505195013 11 360 1.6 12.9 0.00 0.00 0.00 83 1013.3
20260505194532 11 360 3.2 12.9 0.00 0.00 0.00 83 1013.2
20260505194014 11 360 1.6 12.9 0.00 0.00 0.00 83 1013.2
20260505193513 11 360 1.6 8.0 0.00 0.00 0.00 83 1013.2
20260505193030 11 360 1.6 12.9 0.00 0.00 0.00 83 1013.1
20260505192516 11 360 1.6 14.5 0.00 0.00 0.00 83 1013.2
20260505192014 11 360 4.8 14.5 0.00 0.00 0.00 82 1012.9
20260505191529 11 360 3.2 14.5 0.00 0.00 0.00 82 1012.9
20260505191015 11 360 4.8 17.7 0.00 0.00 0.00 81 1013.0
20260505190514 11 360 4.8 17.7 0.00 0.00 0.00 81 1012.9
20260505190037 11 360 6.4 14.5 0.00 0.00 0.00 80 1012.9
20260505185514 12 360 3.2 17.7 0.00 0.00 0.00 79 1012.8
20260505185014 12 360 3.2 19.3 0.00 0.00 0.00 77 1012.9
20260505184530 12 42 6.4 19.3 0.00 0.00 0.00 75 1012.8
20260505184014 12 43 4.8 25.7 0.00 0.00 0.00 73 1012.6
20260505183513 12 56 8.0 25.7 0.00 0.00 0.00 73 1012.5
20260505183032 12 57 8.0 25.7 0.00 0.00 0.00 72 1012.4
20260505182513 13 73 4.8 19.3 0.00 0.00 0.00 70 1012.5
20260505182013 13 45 3.2 9.7 0.00 0.00 0.00 67 1012.5
20260505181529 13 86 1.6 11.3 0.00 0.00 0.00 67 1012.4
20260505181014 13 71 3.2 11.3 0.00 0.00 0.00 69 1012.4
20260505180513 13 163 1.6 8.0 0.00 0.00 0.00 71 1012.4
20260505180034 13 163 3.2 8.0 0.00 0.00 0.00 71 1012.3
20260505175515 13 163 3.2 8.0 0.00 0.00 0.00 71 1012.3
20260505175017 13 360 1.6 6.4 0.00 0.00 0.00 70 1012.1
20260505174539 13 360 1.6 6.4 0.00 0.00 0.00 70 1012.2
20260505174018 13 360 3.2 6.4 0.00 0.00 0.00 69 1012.2
20260505173513 13 360 3.2 6.4 0.00 0.00 0.00 68 1012.2
20260505173030 13 360 1.6 6.4 0.00 0.00 0.00 68 1012.1
20260505172513 13 360 0.0 3.2 0.00 0.00 0.00 67 1012.1
20260505172016 14 0 0.0 0.0 0.00 0.00 0.00 67 1012.1
20260505171529 14 0 0.0 0.0 0.00 0.00 0.00 67 1012.2
20260505171012 14 0 0.0 0.0 0.00 0.00 0.00 66 1012.1
20260505170515 14 0 0.0 4.8 0.00 0.00 0.00 66 1012.2
20260505170030 14 0 0.0 4.8 0.00 0.00 0.00 65 1012.2
20260505165514 14 360 1.6 6.4 0.00 0.00 0.00 64 1012.2
20260505165016 14 360 3.2 6.4 0.00 0.00 0.00 64 1012.2
20260505164528 14 360 1.6 3.2 0.00 0.00 0.00 65 1012.2
20260505164014 14 0 0.0 3.2 0.00 0.00 0.00 65 1012.2
20260505163513 14 360 0.0 3.2 0.00 0.00 0.00 64 1012.2
20260505163036 15 360 0.0 8.0 0.00 0.00 0.00 63 1012.2
20260505162513 15 0 0.0 8.0 0.00 0.00 0.00 63 1012.2
20260505162012 15 360 3.2 8.0 0.00 0.00 0.00 62 1012.1
20260505161533 15 161 0.0 6.4 0.00 0.00 0.00 62 1012.1
20260505161014 15 161 0.0 6.4 0.00 0.00 0.00 62 1012.0
20260505160514 15 161 0.0 8.0 0.00 0.00 0.00 62 1012.0
20260505153029 15 126 3.2 9.7 0.00 0.00 0.00 58 1012.2
20260505152514 15 90 1.6 9.7 0.00 0.00 0.00 58 1012.2
20260505152018 15 90 3.2 9.7 0.00 0.00 0.00 57 1012.2
20260505151532 15 41 1.6 16.1 0.00 0.00 0.00 56 1012.2
20260505151011 15 38 3.2 16.1 0.00 0.00 0.00 55 1012.2
20260505150514 16 28 4.8 16.1 0.00 0.00 0.00 55 1012.3
20260505140513 16 16 1.6 12.9 0.00 0.00 0.00 54 1012.5
20260505125015 16 40 4.8 19.3 0.00 0.00 0.00 53 1012.6
20260505124540 16 51 4.8 19.3 0.00 0.00 0.00 55 1012.7
20260505124017 16 324 4.8 14.5 0.00 0.00 0.00 52 1012.6
20260505123517 17 352 6.4 14.5 0.00 0.00 0.00 51 1012.6
20260505123038 17 5 0.0 12.9 0.00 0.00 0.00 52 1012.5
20260505122511 16 5 4.8 12.9 0.00 0.00 0.00 51 1012.6
20260505122016 16 352 4.8 11.3 0.00 0.00 0.00 52 1012.7
20260505121531 16 352 3.2 16.1 0.00 0.00 0.00 54 1012.6
20260505121013 16 29 3.2 16.1 0.00 0.00 0.00 55 1012.8
20260505120513 16 5 6.4 14.5 0.00 0.00 0.00 56 1012.7
20260505120030 16 5 0.0 12.9 0.00 0.00 0.00 53 1012.8
20260505115513 16 360 4.8 12.9 0.00 0.00 0.00 54 1012.8
20260505115014 16 341 1.6 12.9 0.00 0.00 0.00 52 1012.8
20260505114529 17 348 3.2 9.7 0.00 0.00 0.00 54 1012.8
20260505114017 16 49 3.2 9.7 0.00 0.00 0.00 55 1012.8
20260505113512 16 65 3.2 14.5 0.00 0.00 0.00 54 1013.0
20260505113031 16 67 3.2 14.5 0.00 0.00 0.00 53 1013.1
20260505112517 16 360 4.8 14.5 0.00 0.00 0.00 56 1013.1
20260505112014 16 352 3.2 9.7 0.00 0.00 0.00 55 1013.2
20260505111536 16 352 3.2 9.7 0.00 0.00 0.00 55 1013.3
20260505111015 16 40 3.2 12.9 0.00 0.00 0.00 56 1013.3
20260505110514 15 330 4.8 12.9 0.00 0.00 0.00 55 1013.3
20260505102012 15 9 4.8 14.5 0.00 0.00 0.00 55 1013.4
20260505101531 15 24 4.8 14.5 0.00 0.00 0.00 56 1013.4
20260505101013 15 0 3.2 11.3 0.00 0.00 0.00 56 1013.5
20260505100517 14 48 1.6 12.9 0.00 0.00 0.00 57 1013.5
20260505100034 14 65 4.8 12.9 0.00 0.00 0.00 58 1013.6
20260505095513 14 350 4.8 12.9 0.00 0.00 0.00 57 1013.5
20260505095012 14 327 3.2 12.9 0.00 0.00 0.00 59 1013.6